CZ-6A DEB, 54452

Orbit data source: Space-Track

CZ-6A DEB, 54452 is space debris in SSO originally from a launch on Fri, 11 Nov 2022 UTC launched from the Taiyaun Space Center, China (TSC). Debris objects in space refer to the collection of defunct objects orbiting the Earth. Examples of debris include non-operational satellites, rocket bodies, and fragments generated from explosions, collisions, or faulty payload assembly.

Loading next visibility...
Identifier
54452, 2022-151GC
Orbit
SSO
Country
Flag of CNCN / PRC
Related business
Manufacturer
SAST
Mission
Spacecraft
Bus & Motor
Unknown
Mass
Unknown
Launch date (UTC)
2022-11-11 (3 years ago)
Launch vehicle
Unknown
Launch site
Taiyaun Space Center, China (TSC)
Object type
Payload
Rocket body
Debris
Shape & HBR
Unknown shape, 0.1 m
Radar Cross Section
Small (<0.1 m²)

Expand to show TLE details & history
Last TLE update: 17 hours ago

TLE from 17 hours ago
0 CZ-6A DEB
1 54452U 22151GC  26129.88675566  .00000057  00000-0  75036-4 0  9999
2 54452  98.9829 100.2229 0149165 188.4063 171.4593 13.89047537176730
Epoch: 2026-05-09T21:16Z
TLE epoch observation values (Epoch: 2026-05-09T21:16:55.689Z)
Latitude
-0.00001°
Longitude
-86.70689°
Altitude
1,042.722 km
Speed
7.276 km/s
True Right ascension
06h 40m 53s
True Declination
0° 00' 00"
Sunlit
Object was in daylight at epoch
Visualization orbit readout
Latitude
Unknown
Longitude
Unknown
Altitude
Unknown
Speed
Unknown
Apparent Right ascension
Unknown
Apparent Declination
Unknown
Sunlit
N/A
Visualization observer readout
Local Sidereal Time
22:58:11
Azimuth
Unknown
Elevation
Unknown
Doppler factor
Unknown
Orbital elements
Apogee altitude
1,038.183 km
Perigee altitude
820.183 km
Semi-major axis
7,307.32 km
Eccentricity
0.01492
Inclination
98.9829°
RAAN
100.2229°
Arg. of periapsis
188.4063°
True anomaly
171.70855°
Mean anomaly
171.4593°
Eccentric anomaly
171.58438°
Mean motion
3.47461 °/min
Orbital period
103.61 mins
BSTAR
0.000075036
Loading maneuver chart data...
Computing Atmospheric mass density...

Documentation

Showing up to 5 results
|